Weather in Hladkovychi

Ukraine / Zhytomyr Region     51°20′17″N   28°53′50″E
temp.,
°C
wind,
m/s
gust,
m/s
humid.,
%
clouds,
%
prec.,
mm/h
press.,
hPa
HPBL,
m
6 may, thu
thu600:00+11sse6138537 0.1 1003342
03:00+11s71590100 0.8 1002642
06:00+9ssw61291100 0.0 1002568
09:00+8w71289100 1.9 10061214
12:00+12w7106097 0.1 10081844
15:00+14w91041100 0.1 10092333
18:00+13w4945100 0.0 10101873
21:00+8wsw3558100 0.0 101260
7 may, fri
fri700:00+6sw39717 0.0 1013154
03:00+5ssw387666 0.0 1013140
06:00+5ssw3108251 0.0 1012185
09:00+11ssw61063100 0.0 1012581
12:00+15s71053100 0.0 10091578
15:00+12s71383100 1.2 1007903
18:00+12ssw51087100 1.9 1005688
21:00+10ssw3696100 2.6 1005132
8 may, sat
sat800:00+10wsw3993100 1.5 1005275
03:00+9w51189100 1.6 1006542
06:00+6w81484100 0.0 1008882
09:00+4w81389100 0.1 10111091
12:00+8wnw8116669 0.1 10131574
15:00+10nw9124817 0.2 10142019
18:00+10nw710535 0.0 10152111
21:00+6wnw38701 0.0 1018137
9 may, sun
sun900:00+4w410822 0.0 1019224
03:00+3w410875 0.0 1021257
06:00+2w38945 0.0 1023196
09:00+8wnw46704 0.0 1024662
12:00+12wnw345013 0.0 10241712
15:00+14wnw234078 0.0 10242282
18:00+15ssw334388 0.0 10241865
21:00+10ssw356059 0.0 102675
10 may, mon
mon1000:00+7ssw22664 0.0 102718
03:00+5sse23705 0.0 102829
06:00+5sse33735 0.0 102942
09:00+12se35585 0.0 1029405
12:00+16sse56455 0.0 10281497
15:00+17sse56440 0.0 10271666
18:00+17se45515 0.0 10261566
21:00+10se49665 0.0 1027170